JH0FOG-13 Weather Reports


time (UTC)temp
F
wind
direction
speed
knots
gust
knots
rain 1hr
in
rain 24hr
in
rain mn
in
humidity
%
barometer
mb
20260505152001 46 199 0.0 2.6 0.00 0.00 0.00 85 1019.9
20260505124001 50 198 0.0 1.7 0.00 0.00 0.00 79 1020.2
20260505122001 51 190 0.0 0.9 0.00 0.00 0.00 78 1020.0
20260505120001 51 184 0.9 2.6 0.00 0.00 0.00 77 1019.7
20260505114001 52 167 0.9 2.6 0.00 0.01 0.00 76 1019.7
20260505112001 53 182 0.0 1.7 0.00 0.04 0.00 75 1019.6
20260505102001 56 178 0.9 2.6 0.00 0.17 0.00 68 1019.2
20260505100001 57 149 0.0 1.7 0.00 0.18 0.00 65 1019.1
20260505094001 58 0 0.0 0.0 0.00 0.19 0.00 64 1019.0
20260505092001 60 0 0.0 0.0 0.00 0.21 0.00 55 1018.7
20260505090001 61 209 0.0 1.7 0.00 0.21 0.00 53 1018.6
20260505084001 62 205 0.0 2.6 0.00 0.21 0.00 54 1018.3
20260505082001 65 317 0.9 4.3 0.00 0.21 0.00 41 1018.3
20260505080002 67 322 1.7 4.3 0.00 0.21 0.00 38 1018.5
20260505074002 66 330 0.9 3.5 0.00 0.21 0.00 43 1018.4
20260505072002 67 341 1.7 4.3 0.00 0.21 0.00 36 1018.5
20260505070001 67 319 1.7 5.2 0.00 0.21 0.00 38 1018.5
20260505064001 67 331 1.7 5.2 0.00 0.21 0.00 36 1018.6
20260505062001 66 316 3.5 7.0 0.00 0.21 0.00 38 1019.0
20260505060001 67 333 1.7 5.2 0.00 0.21 0.00 34 1019.0
20260505054001 66 318 2.6 7.0 0.00 0.21 0.00 35 1019.2
20260505052001 67 339 1.7 5.2 0.00 0.21 0.00 34 1019.6
20260505040002 67 320 2.6 9.6 0.00 0.21 0.00 32 1020.2
20260505034001 67 342 1.7 4.3 0.00 0.21 0.00 34 1020.3
20260505032001 66 317 4.3 10.4 0.00 0.22 0.00 37 1020.4
20260505030002 66 337 2.6 7.8 0.00 0.22 0.00 42 1020.5
20260505024001 66 349 0.9 4.3 0.00 0.24 0.00 43 1020.8
20260505022001 65 345 2.6 9.6 0.00 0.24 0.00 44 1021.0
20260505020001 66 176 1.7 6.1 0.00 0.25 0.00 43 1021.0
20260505014001 67 134 0.9 4.3 0.00 0.25 0.00 45 1021.0
20260505012001 64 35 1.7 6.1 0.00 0.27 0.00 45 1020.9
20260505010001 64 19 0.9 5.2 0.00 0.32 0.00 51 1020.8
20260505004001 63 56 0.9 3.5 0.00 0.43 0.00 56 1020.6
20260505002001 62 8 0.9 2.6 0.00 0.45 0.00 58 1020.6
20260505000001 62 154 0.9 4.3 0.00 0.45 0.00 57 1020.6
20260504234001 61 157 1.7 5.2 0.00 0.45 0.00 60 1020.4
20260504232001 60 112 0.0 3.5 0.00 0.45 0.00 63 1020.5
20260504230001 59 115 0.9 3.5 0.00 0.46 0.00 67 1020.4
20260504224001 57 71 0.9 4.3 0.00 0.48 0.00 68 1020.1
20260504222001 56 90 0.0 4.3 0.00 0.48 0.00 72 1019.9
20260504220001 55 37 0.0 3.5 0.00 0.48 0.00 75 1019.7
20260504214001 54 8 0.0 0.9 0.00 0.48 0.00 76 1019.6
20260504212001 52 28 0.0 2.6 0.00 0.49 0.00 81 1019.4
20260504210001 50 139 0.0 0.9 0.00 0.56 0.00 87 1019.2
20260504204001 47 0 0.0 0.0 0.00 0.69 0.00 92 1019.1
20260504202001 44 0 0.0 0.0 0.00 0.78 0.00 93 1018.9
20260504200001 44 0 0.0 0.0 0.00 0.89 0.00 92 1018.8
20260504194001 44 0 0.0 0.0 0.00 1.03 0.00 92 1018.3
20260504192001 45 209 0.0 0.9 0.00 1.21 0.00 92 1017.7
20260504190001 46 0 0.0 0.0 0.00 1.30 0.00 91 1017.6
20260504184001 46 0 0.0 0.0 0.00 1.31 0.00 91 1017.1
20260504182001 47 0 0.0 0.0 0.00 1.31 0.00 90 1017.0
20260504180001 48 0 0.0 0.0 0.00 1.31 0.00 89 1016.7
20260504174001 49 0 0.0 0.0 0.00 1.32 0.00 88 1016.7
20260504172001 49 0 0.0 0.0 0.00 1.33 0.00 88 1016.5